MDT,Max TemperatureF,Mean TemperatureF,Min TemperatureF,Max Dew PointF,MeanDew PointF,Min DewpointF,Max Humidity, Mean Humidity, Min Humidity, Max Sea Level PressureIn, Mean Sea Level PressureIn, Min Sea Level PressureIn, Max VisibilityMiles, Mean VisibilityMiles, Min VisibilityMiles, Max Wind SpeedMPH, Mean Wind SpeedMPH, Max Gust SpeedMPH,PrecipitationIn, CloudCover, Events, WindDirDegrees
2013-10-1,73,59,44,46,37,25,77,52,26,29.99,29.90,29.76,10,10,9,18,11,24,0.00,0,,105
2013-10-2,77,63,49,51,45,37,93,62,31,29.87,29.82,29.76,10,10,9,18,12,30,0.00,0,,6
2013-10-3,61,53,44,49,45,39,100,80,60,29.80,29.75,29.70,10,7,0,20,10,24,0.01,7,Fog-Rain,34
2013-10-4,47,38,29,47,36,25,100,83,65,30.22,29.92,29.66,10,5,0,38,19,49,0.08,7,Fog-Rain-Snow,333
2013-10-5,53,41,28,25,22,13,85,53,21,30.24,30.17,30.10,10,10,10,40,23,51,0.00,3,,317
2013-10-6,65,51,37,36,32,24,76,54,31,30.22,30.17,30.13,10,10,10,31,19,39,0.00,0,,313
2013-10-7,78,61,43,35,30,20,70,41,11,30.14,29.99,29.80,10,10,10,18,10,24,0.00,0,,206
2013-10-8,76,61,46,37,31,26,50,34,17,29.77,29.69,29.60,10,10,10,17,10,22,T,0,,134
2013-10-9,66,54,42,43,39,34,86,63,40,29.90,29.82,29.64,10,10,10,20,11,23,T,0,Rain,349
2013-10-10,77,58,39,47,39,29,93,56,19,29.87,29.64,29.42,10,9,3,47,14,60,0.09,3,Rain,210
2013-10-11,59,51,42,43,39,37,92,70,47,30.03,29.74,29.43,10,10,10,33,12,39,T,4,Rain,314
2013-10-12,57,48,39,43,38,34,93,72,50,30.21,30.14,30.05,10,10,10,28,9,37,0.02,5,Rain,145
2013-10-13,65,52,38,53,42,33,80,62,44,30.20,30.04,29.85,10,10,10,39,22,51,0.09,2,Rain,160
2013-10-14,59,46,33,54,41,27,93,80,67,30.17,29.88,29.68,10,9,3,36,22,43,0.29,5,Rain-Thunderstorm,302
2013-10-15,44,36,27,29,27,24,85,69,53,30.35,30.27,30.17,10,10,10,25,18,32,0.00,5,,329
2013-10-16,51,38,25,31,26,22,85,61,36,30.25,30.12,30.01,10,10,10,14,8,17,0.00,0,,258
2013-10-17,48,40,31,32,30,26,100,77,53,30.15,30.09,30.04,10,7,0,17,10,22,0.20,3,Fog-Rain-Snow,19
2013-10-18,37,32,27,32,29,23,100,80,59,30.26,30.16,30.09,10,5,0,24,8,29,0.29,6,Fog-Snow,323
2013-10-19,59,45,30,33,27,24,78,53,28,30.12,30.01,29.90,10,10,10,18,10,23,0.00,1,,260
2013-10-20,51,43,34,39,34,29,100,75,50,30.14,29.98,29.83,10,10,7,23,12,30,0.01,4,Rain,315
2013-10-21,57,44,31,36,33,30,100,68,36,30.19,30.12,30.05,10,7,0,23,11,29,0.00,5,Fog,274
2013-10-22,65,52,39,37,34,32,79,55,30,30.16,30.09,30.04,10,10,10,23,9,29,0.00,3,,273
2013-10-23,65,51,37,37,32,27,85,55,24,30.22,30.11,30.02,10,10,10,16,10,20,0.00,0,,328
2013-10-24,54,43,32,37,34,30,96,75,54,30.32,30.26,30.21,10,10,10,20,12,24,0.00,1,,151
2013-10-25,67,50,32,40,35,30,89,60,31,30.25,30.15,30.04,10,9,4,16,10,18,0.00,0,,252
2013-10-26,61,47,32,37,33,30,96,65,33,30.35,30.24,30.07,10,8,2,16,9,22,0.00,0,,275
2013-10-27,70,56,42,34,28,18,70,42,14,30.06,29.90,29.77,10,10,10,17,11,20,0.00,0,,236
2013-10-28,48,39,30,34,30,28,100,77,53,30.14,30.04,29.78,10,4,0,21,11,28,0.00,8,Fog,34
2013-10-29,39,36,32,34,33,30,100,93,85,30.10,30.00,29.93,10,4,0,12,5,13,0.00,8,Fog,71
2013-10-30,54,44,33,38,34,29,100,69,38,29.97,29.86,29.78,10,7,0,18,10,23,0.01,5,Fog-Rain,218
2013-10-31,55,43,31,32,26,21,96,62,28,29.84,29.80,29.75,10,10,10,35,14,42,0.00,3,,291